Time,TemperatureF,DewpointF,PressureIn,WindDirection,WindDirectionDegrees,WindSpeedMPH,WindSpeedGustMPH,Humidity,HourlyPrecipIn,Conditions,Clouds,dailyrainin,SolarRadiationWatts/m^2,SoftwareType,DateUTC
2013-03-08 00:00:00,40.3,28.3,30.11,NW,308,4.6,6.9,62,0.00,,SCT,0.00,0.0,WeatherDisplay:10.37,2013-03-08 05:00:00,
2013-03-08 00:01:00,40.2,28.6,30.11,WSW,249,3.8,6.9,63,0.00,CLR,SCT,0.00,0.0,WeatherDisplay:10.37,2013-03-08 05:01:00,
2013-03-08 00:02:00,40.2,28.6,30.11,NNW,335,3.5,5.0,63,0.00,CLR,SCT,0.00,0.0,WeatherDisplay:10.37,2013-03-08 05:02:00,
2013-03-08 00:07:00,40.2,28.6,30.11,NNW,328,3.6,8.1,63,0.00,CLR,SCT,0.00,0.0,WeatherDisplay:10.37,2013-03-08 05:07:00,
2013-03-08 00:12:00,40.4,28.8,30.11,WNW,289,4.9,7.0,63,0.00,CLR,SCT,0.00,0.0,WeatherDisplay:10.37,2013-03-08 05:12:00,
2013-03-08 00:17:00,40.4,28.4,30.11,NNE,13,5.7,10.4,62,0.00,CLR,SCT,0.00,0.0,WeatherDisplay:10.37,2013-03-08 05:17:00,
2013-03-08 00:22:00,40.4,28.4,30.11,North,353,5.0,8.1,62,0.00,CLR,SCT,0.00,0.0,WeatherDisplay:10.37,2013-03-08 05:22:00,
2013-03-08 00:27:00,40.3,28.7,30.11,NW,324,5.0,9.2,63,0.00,CLR,SCT,0.00,0.0,WeatherDisplay:10.37,2013-03-08 05:27:00,
2013-03-08 00:32:00,40.2,29.0,30.11,NNW,343,2.8,4.6,64,0.00,CLR,SCT,0.00,0.0,WeatherDisplay:10.37,2013-03-08 05:32:00,
2013-03-08 00:37:00,40.3,29.1,30.11,North,358,6.1,6.1,64,0.00,CLR,SCT,0.00,0.0,WeatherDisplay:10.37,2013-03-08 05:37:00,
2013-03-08 00:42:00,40.4,29.2,30.11,NNW,327,4.2,7.0,64,0.00,CLR,SCT,0.00,0.0,WeatherDisplay:10.37,2013-03-08 05:42:00,
2013-03-08 00:47:00,40.6,29.4,30.12,North,358,3.9,5.0,64,0.00,CLR,SCT,0.00,0.0,WeatherDisplay:10.37,2013-03-08 05:47:00,
2013-03-08 00:52:00,40.7,29.1,30.12,NNW,346,2.4,9.2,63,0.00,CLR,SCT,0.00,0.0,WeatherDisplay:10.37,2013-03-08 05:52:00,
2013-03-08 00:57:00,40.8,29.2,30.12,NNW,346,3.1,4.6,63,0.00,CLR,SCT,0.00,0.0,WeatherDisplay:10.37,2013-03-08 05:57:00,
2013-03-08 01:02:00,40.8,29.2,30.12,NNW,330,4.4,9.2,63,0.00,,SCT,0.00,0.0,WeatherDisplay:10.37,2013-03-08 06:02:00,
2013-03-08 01:07:00,40.9,29.3,30.11,NNW,330,4.4,10.4,63,0.00,,SCT,0.00,0.0,WeatherDisplay:10.37,2013-03-08 06:07:00,
2013-03-08 01:12:00,40.8,29.2,30.12,North,353,5.8,12.0,63,0.00,,SCT,0.00,0.0,WeatherDisplay:10.37,2013-03-08 06:12:00,
2013-03-08 01:17:00,40.8,29.2,30.12,North,352,9.4,12.7,63,0.00,,SCT,0.00,0.0,WeatherDisplay:10.37,2013-03-08 06:17:00,
2013-03-08 01:22:00,40.6,29.4,30.12,NNW,330,6.5,10.4,64,0.00,,SCT,0.00,0.0,WeatherDisplay:10.37,2013-03-08 06:22:00,
2013-03-08 01:27:00,40.3,29.1,30.12,NNW,347,6.6,10.4,64,0.00,,SCT,0.00,0.0,WeatherDisplay:10.37,2013-03-08 06:27:00,
2013-03-08 01:32:00,40.2,29.4,30.12,North,358,4.6,9.2,65,0.00,,SCT,0.00,0.0,WeatherDisplay:10.37,2013-03-08 06:32:00,
2013-03-08 01:37:00,40.0,29.6,30.12,NW,321,7.2,12.7,66,0.00,,SCT,0.00,0.0,WeatherDisplay:10.37,2013-03-08 06:37:00,
2013-03-08 01:42:00,39.9,29.5,30.12,North,350,6.6,10.4,66,0.00,,SCT,0.00,0.0,WeatherDisplay:10.37,2013-03-08 06:42:00,
2013-03-08 01:47:00,39.7,29.3,30.12,NNW,343,7.8,12.7,66,0.00,,SCT,0.00,0.0,WeatherDisplay:10.37,2013-03-08 06:47:00,
2013-03-08 01:52:00,39.7,29.6,30.12,NNW,336,6.8,12.0,67,0.00,,SCT,0.00,0.0,WeatherDisplay:10.37,2013-03-08 06:52:00,
2013-03-08 01:57:00,39.7,29.6,30.12,WNW,284,8.9,12.7,67,0.00,,SCT,0.00,0.0,WeatherDisplay:10.37,2013-03-08 06:57:00,
2013-03-08 02:02:00,39.8,29.7,30.11,NNW,334,7.1,15.0,67,0.00,,SCT,0.00,0.0,WeatherDisplay:10.37,2013-03-08 07:02:00,
2013-03-08 02:07:00,39.8,29.4,30.12,NNW,329,7.0,12.7,66,0.00,,SCT,0.00,0.0,WeatherDisplay:10.37,2013-03-08 07:07:00,
2013-03-08 02:12:00,39.9,29.5,30.11,NNW,343,8.2,12.0,66,0.00,,SCT,0.00,0.0,WeatherDisplay:10.37,2013-03-08 07:12:00,
2013-03-08 02:17:00,39.8,29.4,30.11,North,353,9.6,13.0,66,0.00,,SCT,0.00,0.0,WeatherDisplay:10.37,2013-03-08 07:17:00,
2013-03-08 02:22:00,39.6,29.5,30.11,North,352,5.1,10.4,67,0.00,,SCT,0.00,0.0,WeatherDisplay:10.37,2013-03-08 07:22:00,
2013-03-08 02:27:00,39.6,29.5,30.11,NNW,330,6.6,11.5,67,0.00,,SCT,0.00,0.0,WeatherDisplay:10.37,2013-03-08 07:27:00,
2013-03-08 02:32:00,39.6,29.2,30.11,NNW,342,9.3,12.7,66,0.00,,SCT,0.00,0.0,WeatherDisplay:10.37,2013-03-08 07:32:00,
2013-03-08 02:37:00,39.5,29.1,30.10,NW,318,5.8,13.8,66,0.00,,SCT,0.00,0.0,WeatherDisplay:10.37,2013-03-08 07:37:00,
2013-03-08 02:42:00,39.3,29.3,30.10,NNW,348,7.0,10.4,67,0.00,,SCT,0.00,0.0,WeatherDisplay:10.37,2013-03-08 07:42:00,
2013-03-08 02:47:00,39.2,29.2,30.10,NW,325,8.9,16.1,67,0.00,,SCT,0.00,0.0,WeatherDisplay:10.37,2013-03-08 07:47:00,
2013-03-08 02:52:00,39.1,29.1,30.10,NW,320,7.4,11.5,67,0.00,,SCT,0.00,0.0,WeatherDisplay:10.37,2013-03-08 07:52:00,
2013-03-08 02:57:00,38.9,28.9,30.10,NNW,347,11.0,11.5,67,0.00,,SCT,0.00,0.0,WeatherDisplay:10.37,2013-03-08 07:57:00,
2013-03-08 03:02:00,38.9,29.2,30.10,NW,324,5.3,10.4,68,0.00,,SCT,0.00,0.0,WeatherDisplay:10.37,2013-03-08 08:02:00,
2013-03-08 03:07:00,38.8,29.1,30.10,NNW,342,6.1,9.2,68,0.00,,SCT,0.00,0.0,WeatherDisplay:10.37,2013-03-08 08:07:00,
2013-03-08 03:12:00,38.6,29.3,30.10,North,354,4.7,7.0,69,0.00,,SCT,0.00,0.0,WeatherDisplay:10.37,2013-03-08 08:12:00,
2013-03-08 03:17:00,38.4,29.5,30.10,North,8,2.2,5.0,70,0.00,,SCT,0.00,0.0,WeatherDisplay:10.37,2013-03-08 08:17:00,
2013-03-08 03:22:00,38.4,29.1,30.10,NNW,327,6.0,8.1,69,0.00,,SCT,0.00,0.0,WeatherDisplay:10.37,2013-03-08 08:22:00,
2013-03-08 03:27:00,38.5,29.2,30.10,NNW,348,8.0,13.8,69,0.00,,SCT,0.00,0.0,WeatherDisplay:10.37,2013-03-08 08:27:00,
2013-03-08 03:32:00,38.4,29.1,30.10,North,8,7.2,10.4,69,0.00,,SCT,0.00,0.0,WeatherDisplay:10.37,2013-03-08 08:32:00,
2013-03-08 03:37:00,38.3,28.7,30.10,NW,318,6.2,9.2,68,0.00,,SCT,0.00,0.0,WeatherDisplay:10.37,2013-03-08 08:37:00,
2013-03-08 03:42:00,38.3,28.3,30.10,NE,45,7.4,11.5,67,0.00,,SCT,0.00,0.0,WeatherDisplay:10.37,2013-03-08 08:42:00,
2013-03-08 03:47:00,38.3,27.9,30.10,North,351,5.8,11.5,66,0.00,,SCT,0.00,0.0,WeatherDisplay:10.37,2013-03-08 08:47:00,
2013-03-08 03:52:00,38.2,27.8,30.10,North,8,5.3,9.2,66,0.00,,SCT,0.00,0.0,WeatherDisplay:10.37,2013-03-08 08:52:00,
2013-03-08 03:57:00,38.1,28.1,30.10,NW,312,7.6,11.5,67,0.00,,SCT,0.00,0.0,WeatherDisplay:10.37,2013-03-08 08:57:00,
2013-03-08 04:02:00,38.0,28.4,30.10,NNW,339,5.2,13.8,68,0.00,,SCT,0.00,0.0,WeatherDisplay:10.37,2013-03-08 09:02:00,
2013-03-08 04:07:00,37.9,28.6,30.10,NW,309,5.1,11.5,69,0.00,,SCT,0.00,0.0,WeatherDisplay:10.37,2013-03-08 09:07:00,
2013-03-08 04:12:00,37.8,28.5,30.10,NNW,329,5.4,9.2,69,0.00,,SCT,0.00,0.0,WeatherDisplay:10.37,2013-03-08 09:12:00,
2013-03-08 04:17:00,37.8,28.9,30.10,North,351,7.2,12.0,70,0.00,,SCT,0.00,0.0,WeatherDisplay:10.37,2013-03-08 09:17:00,
2013-03-08 04:22:00,37.8,28.9,30.10,NW,325,5.6,11.5,70,0.00,,SCT,0.00,0.0,WeatherDisplay:10.37,2013-03-08 09:22:00,
2013-03-08 04:27:00,37.7,28.8,30.11,NW,312,7.1,8.1,70,0.00,,SCT,0.00,0.0,WeatherDisplay:10.37,2013-03-08 09:27:00,
2013-03-08 04:33:00,37.8,28.9,30.10,NNW,334,5.2,17.3,70,0.00,,SCT,0.00,0.0,WeatherDisplay:10.37,2013-03-08 09:33:00,
2013-03-08 04:38:00,37.8,28.9,30.10,WSW,249,5.7,11.0,70,0.00,,SCT,0.00,0.0,WeatherDisplay:10.37,2013-03-08 09:38:00,
2013-03-08 04:43:00,37.8,28.5,30.10,NNW,341,6.7,13.0,69,0.00,,SCT,0.00,0.0,WeatherDisplay:10.37,2013-03-08 09:43:00,
2013-03-08 04:48:00,37.9,27.9,30.10,NW,306,9.4,13.8,67,0.00,,SCT,0.00,0.0,WeatherDisplay:10.37,2013-03-08 09:48:00,
2013-03-08 04:53:00,38.0,26.9,30.10,NW,324,12.8,23.0,64,0.00,,SCT,0.00,0.0,WeatherDisplay:10.37,2013-03-08 09:53:00,
2013-03-08 04:58:00,38.0,26.5,30.10,NNW,330,7.6,13.8,63,0.00,,SCT,0.00,0.0,WeatherDisplay:10.37,2013-03-08 09:58:00,
2013-03-08 05:03:00,38.0,26.5,30.10,NNW,341,6.4,11.5,63,0.00,,SCT,0.00,0.0,WeatherDisplay:10.37,2013-03-08 10:03:00,
2013-03-08 05:08:00,38.0,26.5,30.11,North,352,6.3,11.5,63,0.00,,SCT,0.00,0.0,WeatherDisplay:10.37,2013-03-08 10:08:00,
2013-03-08 05:13:00,37.9,26.8,30.11,NW,312,12.7,16.1,64,0.00,,SCT,0.00,0.0,WeatherDisplay:10.37,2013-03-08 10:13:00,
2013-03-08 05:18:00,37.9,26.8,30.11,NNW,347,7.2,15.0,64,0.00,,SCT,0.00,0.0,WeatherDisplay:10.37,2013-03-08 10:18:00,
2013-03-08 05:23:00,37.9,26.8,30.11,NNW,348,5.6,10.4,64,0.00,,SCT,0.00,0.0,WeatherDisplay:10.37,2013-03-08 10:23:00,
2013-03-08 05:28:00,37.9,26.8,30.11,NW,311,11.6,16.0,64,0.00,,SCT,0.00,0.0,WeatherDisplay:10.37,2013-03-08 10:28:00,
2013-03-08 05:33:00,37.9,26.4,30.11,NNW,336,6.5,11.5,63,0.00,,SCT,0.00,0.0,WeatherDisplay:10.37,2013-03-08 10:33:00,
2013-03-08 05:38:00,37.9,26.4,30.11,NW,312,11.0,19.6,63,0.00,,SCT,0.00,0.0,WeatherDisplay:10.37,2013-03-08 10:38:00,
2013-03-08 05:43:00,37.9,26.4,30.10,WNW,301,11.4,15.0,63,0.00,,SCT,0.00,0.0,WeatherDisplay:10.37,2013-03-08 10:43:00,
2013-03-08 05:48:00,37.9,26.4,30.10,NNW,343,9.3,13.0,63,0.00,,SCT,0.00,0.0,WeatherDisplay:10.37,2013-03-08 10:48:00,
2013-03-08 05:53:00,37.9,26.4,30.10,NNE,28,7.2,12.7,63,0.00,,SCT,0.00,0.0,WeatherDisplay:10.37,2013-03-08 10:53:00,
2013-03-08 05:58:00,38.0,26.1,30.11,NNW,327,10.7,16.1,62,0.00,,SCT,0.00,0.0,WeatherDisplay:10.37,2013-03-08 10:58:00,
2013-03-08 06:03:00,38.0,26.1,30.11,NW,322,9.9,15.0,62,0.00,,SCT,0.00,0.0,WeatherDisplay:10.37,2013-03-08 11:03:00,
2013-03-08 06:08:00,38.0,26.1,30.11,NNW,327,10.9,18.4,62,0.00,,SCT,0.00,0.0,WeatherDisplay:10.37,2013-03-08 11:08:00,
2013-03-08 06:13:00,37.8,26.7,30.11,NW,312,8.7,11.5,64,0.00,,SCT,0.00,0.0,WeatherDisplay:10.37,2013-03-08 11:13:00,
2013-03-08 06:18:00,37.7,26.6,30.11,NNW,345,9.4,12.7,64,0.00,,SCT,0.00,0.0,WeatherDisplay:10.37,2013-03-08 11:18:00,
2013-03-08 06:23:00,37.7,26.6,30.11,NNW,327,5.7,10.4,64,0.00,,SCT,0.00,0.0,WeatherDisplay:10.37,2013-03-08 11:23:00,
2013-03-08 06:28:00,37.6,26.5,30.11,NW,322,4.1,5.8,64,0.00,,SCT,0.00,5.0,WeatherDisplay:10.37,2013-03-08 11:28:00,
2013-03-08 06:33:00,37.5,26.4,30.11,NNW,331,7.0,12.7,64,0.00,,SCT,0.00,7.0,WeatherDisplay:10.37,2013-03-08 11:33:00,
2013-03-08 06:38:00,37.4,26.3,30.11,NNW,347,6.2,8.1,64,0.00,,SCT,0.00,11.0,WeatherDisplay:10.37,2013-03-08 11:38:00,
2013-03-08 06:43:00,37.3,26.6,30.11,NW,321,5.5,12.0,65,0.00,,SCT,0.00,16.0,WeatherDisplay:10.37,2013-03-08 11:43:00,
2013-03-08 06:48:00,37.2,26.5,30.11,NNW,347,6.4,10.4,65,0.00,,SCT,0.00,19.0,WeatherDisplay:10.37,2013-03-08 11:48:00,
2013-03-08 06:53:00,37.4,26.3,30.11,North,3,5.1,10.4,64,0.00,,SCT,0.00,25.0,WeatherDisplay:10.37,2013-03-08 11:53:00,
2013-03-08 06:58:00,37.4,26.3,30.11,NW,323,8.7,13.8,64,0.00,,SCT,0.00,23.0,WeatherDisplay:10.37,2013-03-08 11:58:00,
2013-03-08 07:03:00,37.4,26.7,30.11,NW,324,10.4,17.0,65,0.00,,SCT,0.00,44.0,WeatherDisplay:10.37,2013-03-08 12:03:00,
2013-03-08 07:08:00,37.5,26.8,30.12,WNW,289,6.1,8.1,65,0.00,,SCT,0.00,35.0,WeatherDisplay:10.37,2013-03-08 12:08:00,
2013-03-08 07:13:00,37.5,26.8,30.12,NW,319,6.9,11.5,65,0.00,,SCT,0.00,53.0,WeatherDisplay:10.37,2013-03-08 12:13:00,
2013-03-08 07:18:00,37.5,26.8,30.12,NW,324,6.9,11.5,65,0.00,,SCT,0.00,53.0,WeatherDisplay:10.37,2013-03-08 12:18:00,
2013-03-08 07:23:00,37.6,26.9,30.12,NNW,341,5.0,11.5,65,0.00,,SCT,0.00,118.0,WeatherDisplay:10.37,2013-03-08 12:23:00,
2013-03-08 07:28:00,37.9,27.2,30.12,North,8,11.6,19.6,65,0.00,,SCT,0.00,107.0,WeatherDisplay:10.37,2013-03-08 12:28:00,
2013-03-08 07:33:00,38.1,27.4,30.12,NNW,343,10.2,13.8,65,0.00,BKN,SCT,0.00,105.0,WeatherDisplay:10.37,2013-03-08 12:33:00,
2013-03-08 07:38:00,38.4,26.9,30.12,North,3,12.1,19.6,63,0.00,SCT,,0.00,146.0,WeatherDisplay:10.37,2013-03-08 12:38:00,
2013-03-08 07:43:00,38.6,27.5,30.12,West,279,4.7,9.0,64,0.00,CLR,SCT,0.00,188.0,WeatherDisplay:10.37,2013-03-08 12:43:00,
2013-03-08 07:48:00,38.7,27.2,30.12,NW,305,7.2,16.1,63,0.00,CLR,SCT,0.00,221.0,WeatherDisplay:10.37,2013-03-08 12:48:00,
2013-03-08 07:53:00,38.9,27.4,30.12,NNW,332,11.6,13.8,63,0.00,CLR,SCT,0.00,251.0,WeatherDisplay:10.37,2013-03-08 12:53:00,
2013-03-08 07:58:00,38.9,27.0,30.12,NNW,332,12.9,16.1,62,0.00,CLR,SCT,0.00,120.0,WeatherDisplay:10.37,2013-03-08 12:58:00,
2013-03-08 08:03:00,38.7,26.8,30.11,NNW,335,14.3,18.4,62,0.00,CLR,SCT,0.00,139.0,WeatherDisplay:10.37,2013-03-08 13:03:00,
2013-03-08 08:08:00,38.7,27.2,30.11,NW,309,12.9,23.0,63,0.00,CLR,SCT,0.00,216.0,WeatherDisplay:10.37,2013-03-08 13:08:00,
2013-03-08 08:13:00,38.9,27.0,30.12,NNW,345,8.1,17.3,62,0.00,CLR,SCT,0.00,149.0,WeatherDisplay:10.37,2013-03-08 13:13:00,
2013-03-08 08:18:00,39.0,27.1,30.12,NNW,341,11.8,17.3,62,0.00,CLR,SCT,0.00,183.0,WeatherDisplay:10.37,2013-03-08 13:18:00,
2013-03-08 08:23:00,39.0,27.1,30.11,NNW,342,14.0,21.9,62,0.00,CLR,SCT,0.00,216.0,WeatherDisplay:10.37,2013-03-08 13:23:00,
2013-03-08 08:28:00,39.1,26.8,30.11,NNW,327,10.9,15.0,61,0.00,CLR,SCT,0.00,241.0,WeatherDisplay:10.37,2013-03-08 13:28:00,
2013-03-08 08:33:00,39.3,27.0,30.11,North,358,12.9,19.6,61,0.00,CLR,SCT,0.00,155.0,WeatherDisplay:10.37,2013-03-08 13:33:00,
2013-03-08 08:38:00,39.4,27.1,30.12,North,3,11.5,19.0,61,0.00,CLR,SCT,0.00,269.0,WeatherDisplay:10.37,2013-03-08 13:38:00,
2013-03-08 08:43:00,39.5,26.8,30.12,NNW,340,13.5,24.2,60,0.00,CLR,SCT,0.00,195.0,WeatherDisplay:10.37,2013-03-08 13:43:00,
2013-03-08 08:48:00,39.5,26.3,30.11,NNE,14,12.2,18.4,59,0.00,CLR,SCT,0.00,364.0,WeatherDisplay:10.37,2013-03-08 13:48:00,
2013-03-08 08:53:00,40.0,27.2,30.12,North,352,11.8,19.6,60,0.00,CLR,SCT,0.00,483.0,WeatherDisplay:10.37,2013-03-08 13:53:00,
2013-03-08 08:58:00,40.5,27.3,30.11,NNW,336,14.3,26.5,59,0.00,CLR,SCT,0.00,490.0,WeatherDisplay:10.37,2013-03-08 13:58:00,
2013-03-08 09:03:00,40.4,26.8,30.12,North,351,10.7,19.6,58,0.00,CLR,SCT,0.00,497.0,WeatherDisplay:10.37,2013-03-08 14:03:00,
2013-03-08 09:08:00,40.5,27.3,30.12,North,358,13.1,19.6,59,0.00,CLR,SCT,0.00,179.0,WeatherDisplay:10.37,2013-03-08 14:08:00,
2013-03-08 09:13:00,39.8,25.8,30.12,NW,318,16.2,23.0,57,0.00,CLR,SCT,0.00,141.0,WeatherDisplay:10.37,2013-03-08 14:13:00,
2013-03-08 09:18:00,40.1,26.9,30.12,North,353,15.0,23.0,59,0.00,FEW,SCT,0.00,494.0,WeatherDisplay:10.37,2013-03-08 14:18:00,
2013-03-08 09:23:00,41.0,28.2,30.12,NNW,341,9.0,18.4,60,0.00,CLR,SCT,0.00,506.0,WeatherDisplay:10.37,2013-03-08 14:23:00,
2013-03-08 09:28:00,41.1,26.6,30.12,North,8,11.7,24.2,56,0.00,CLR,SCT,0.00,520.0,WeatherDisplay:10.37,2013-03-08 14:28:00,
2013-03-08 09:33:00,41.0,26.9,30.12,NW,307,14.0,25.3,57,0.00,CLR,SCT,0.00,543.0,WeatherDisplay:10.37,2013-03-08 14:33:00,
2013-03-08 09:38:00,40.7,26.6,30.12,NNW,341,9.0,14.0,57,0.00,CLR,SCT,0.00,200.0,WeatherDisplay:10.37,2013-03-08 14:38:00,
2013-03-08 09:43:00,40.5,26.0,30.12,NNW,347,12.6,26.5,56,0.00,CLR,SCT,0.00,276.0,WeatherDisplay:10.37,2013-03-08 14:43:00,
2013-03-08 09:48:00,40.4,25.9,30.12,NW,323,10.0,21.9,56,0.00,FEW,SCT,0.00,348.0,WeatherDisplay:10.37,2013-03-08 14:48:00,
2013-03-08 09:53:00,41.2,27.5,30.12,North,358,9.0,19.6,58,0.00,CLR,SCT,0.00,626.0,WeatherDisplay:10.37,2013-03-08 14:53:00,
2013-03-08 09:58:00,41.7,27.6,30.12,NNW,337,11.9,20.7,57,0.00,CLR,SCT,0.00,687.0,WeatherDisplay:10.37,2013-03-08 14:58:00,
2013-03-08 10:03:00,41.5,27.4,30.12,NW,315,12.8,17.3,57,0.00,CLR,SCT,0.00,673.0,WeatherDisplay:10.37,2013-03-08 15:03:00,
2013-03-08 10:08:00,41.4,26.9,30.12,NW,308,13.4,19.6,56,0.00,CLR,SCT,0.00,381.0,WeatherDisplay:10.37,2013-03-08 15:08:00,
2013-03-08 10:13:00,40.7,25.8,30.11,North,350,11.3,19.6,55,0.00,CLR,SCT,0.00,315.0,WeatherDisplay:10.37,2013-03-08 15:13:00,
2013-03-08 10:18:00,40.7,26.6,30.12,NNW,339,15.1,21.9,57,0.00,FEW,SCT,0.00,438.0,WeatherDisplay:10.37,2013-03-08 15:18:00,
2013-03-08 10:23:00,40.8,26.7,30.11,NW,326,16.2,23.0,57,0.00,FEW,SCT,0.00,415.0,WeatherDisplay:10.37,2013-03-08 15:23:00,
2013-03-08 10:28:00,40.9,27.7,30.11,West,265,11.7,18.4,59,0.00,FEW,SCT,0.00,434.0,WeatherDisplay:10.37,2013-03-08 15:28:00,
2013-03-08 10:33:00,40.9,27.2,30.11,NW,324,11.1,16.1,58,0.00,SCT,,0.00,346.0,WeatherDisplay:10.37,2013-03-08 15:33:00,
2013-03-08 10:38:00,40.9,26.8,30.11,NNW,341,10.0,18.4,57,0.00,SCT,,0.00,418.0,WeatherDisplay:10.37,2013-03-08 15:38:00,
2013-03-08 10:43:00,41.4,28.1,30.11,North,358,10.1,17.3,59,0.00,FEW,SCT,0.00,373.0,WeatherDisplay:10.37,2013-03-08 15:43:00,
2013-03-08 10:48:00,41.8,28.5,30.11,North,8,9.1,16.1,59,0.00,FEW,SCT,0.00,571.0,WeatherDisplay:10.37,2013-03-08 15:48:00,
2013-03-08 10:53:00,42.1,27.9,30.11,NNW,342,11.5,14.0,57,0.00,FEW,SCT,0.00,355.0,WeatherDisplay:10.37,2013-03-08 15:53:00,
2013-03-08 10:58:00,42.1,27.9,30.12,West,267,7.7,13.0,57,0.00,SCT,,0.00,408.0,WeatherDisplay:10.37,2013-03-08 15:58:00,
2013-03-08 11:03:00,42.1,27.9,30.12,NNW,346,8.8,14.0,57,0.00,SCT,,0.00,360.0,WeatherDisplay:10.37,2013-03-08 16:03:00,
2013-03-08 11:08:00,42.4,28.2,30.12,North,351,10.8,16.0,57,0.00,SCT,,0.00,410.0,WeatherDisplay:10.37,2013-03-08 16:08:00,
2013-03-08 11:13:00,42.5,27.9,30.12,NW,312,9.5,17.3,56,0.00,SCT,,0.00,404.0,WeatherDisplay:10.37,2013-03-08 16:13:00,
2013-03-08 11:18:00,42.4,28.2,30.12,NNW,347,8.4,12.7,57,0.00,SCT,,0.00,410.0,WeatherDisplay:10.37,2013-03-08 16:18:00,
2013-03-08 11:23:00,42.6,28.0,30.11,North,349,12.7,20.7,56,0.00,SCT,,0.00,485.0,WeatherDisplay:10.37,2013-03-08 16:23:00,
2013-03-08 11:28:00,42.9,27.8,30.11,WNW,299,16.4,20.7,55,0.00,SCT,,0.00,404.0,WeatherDisplay:10.37,2013-03-08 16:28:00,
2013-03-08 11:33:00,42.8,27.3,30.12,North,3,12.8,24.2,54,0.00,SCT,,0.00,425.0,WeatherDisplay:10.37,2013-03-08 16:33:00,
2013-03-08 11:38:00,43.1,28.0,30.12,NW,318,7.5,17.3,55,0.00,SCT,,0.00,417.0,WeatherDisplay:10.37,2013-03-08 16:38:00,
2013-03-08 11:43:00,43.3,28.2,30.12,NNE,18,11.2,17.3,55,0.00,SCT,,0.00,464.0,WeatherDisplay:10.37,2013-03-08 16:43:00,
2013-03-08 11:49:00,43.7,28.6,30.12,NNW,334,11.5,17.0,55,0.00,SCT,,0.00,580.0,WeatherDisplay:10.37,2013-03-08 16:49:00,
2013-03-08 11:54:00,44.2,28.6,30.12,NNW,342,10.6,24.2,54,0.00,CLR,SCT,0.00,559.0,WeatherDisplay:10.37,2013-03-08 16:54:00,
2013-03-08 11:59:00,44.1,28.0,30.11,NNW,328,15.2,18.4,53,0.00,CLR,SCT,0.00,489.0,WeatherDisplay:10.37,2013-03-08 16:59:00,
2013-03-08 12:04:00,43.7,28.6,30.12,NNW,333,10.8,18.4,55,0.00,SCT,,0.00,424.0,WeatherDisplay:10.37,2013-03-08 17:04:00,
2013-03-08 12:09:00,43.7,28.6,30.11,NNW,346,9.4,18.4,55,0.00,SCT,,0.00,415.0,WeatherDisplay:10.37,2013-03-08 17:09:00,
2013-03-08 12:14:00,43.9,28.8,30.11,NNW,347,12.8,17.3,55,0.00,SCT,,0.00,485.0,WeatherDisplay:10.37,2013-03-08 17:14:00,
2013-03-08 12:19:00,44.3,29.1,30.11,NW,316,12.0,20.7,55,0.00,SCT,,0.00,425.0,WeatherDisplay:10.37,2013-03-08 17:19:00,
2013-03-08 12:24:00,44.3,29.1,30.11,NW,314,12.1,18.4,55,0.00,SCT,,0.00,441.0,WeatherDisplay:10.37,2013-03-08 17:24:00,
2013-03-08 12:29:00,44.5,28.9,30.11,NW,311,13.5,19.6,54,0.00,SCT,,0.00,420.0,WeatherDisplay:10.37,2013-03-08 17:29:00,
2013-03-08 12:34:00,44.5,28.9,30.10,NNW,341,16.8,24.2,54,0.00,SCT,,0.00,410.0,WeatherDisplay:10.37,2013-03-08 17:34:00,
2013-03-08 12:39:00,44.0,28.4,30.10,North,8,11.4,13.8,54,0.00,BKN,SCT,0.00,294.0,WeatherDisplay:10.37,2013-03-08 17:39:00,
2013-03-08 12:44:00,43.8,28.7,30.10,NNW,339,9.2,11.5,55,0.00,BKN,SCT,0.00,279.0,WeatherDisplay:10.37,2013-03-08 17:44:00,
2013-03-08 12:49:00,43.7,28.1,30.10,NNW,336,11.8,19.6,54,0.00,BKN,SCT,0.00,272.0,WeatherDisplay:10.37,2013-03-08 17:49:00,
2013-03-08 12:54:00,44.0,29.7,30.10,North,351,5.9,16.0,57,0.00,BKN,SCT,0.00,306.0,WeatherDisplay:10.37,2013-03-08 17:54:00,
2013-03-08 12:59:00,44.2,29.9,30.10,NNW,334,8.6,12.7,57,0.00,BKN,SCT,0.00,316.0,WeatherDisplay:10.37,2013-03-08 17:59:00,
2013-03-08 13:04:00,44.2,28.6,30.09,NW,304,11.6,16.1,54,0.00,BKN,SCT,0.00,278.0,WeatherDisplay:10.37,2013-03-08 18:04:00,
2013-03-08 13:09:00,44.2,29.0,30.09,NNW,330,11.5,16.1,55,0.00,BKN,SCT,0.00,260.0,WeatherDisplay:10.37,2013-03-08 18:09:00,
2013-03-08 13:14:00,44.2,29.5,30.09,NNW,332,4.6,11.0,56,0.00,BKN,SCT,0.00,241.0,WeatherDisplay:10.37,2013-03-08 18:14:00,
2013-03-08 13:19:00,44.2,29.9,30.09,NNW,343,9.4,20.0,57,0.00,BKN,SCT,0.00,239.0,WeatherDisplay:10.37,2013-03-08 18:19:00,
2013-03-08 13:24:00,44.3,30.0,30.09,NNW,336,6.3,12.7,57,0.00,BKN,SCT,0.00,243.0,WeatherDisplay:10.37,2013-03-08 18:24:00,
2013-03-08 13:29:00,44.5,29.3,30.09,NW,318,14.2,19.6,55,0.00,BKN,SCT,0.00,253.0,WeatherDisplay:10.37,2013-03-08 18:29:00,
2013-03-08 13:34:00,44.5,29.8,30.09,NW,318,8.4,12.7,56,0.00,BKN,SCT,0.00,269.0,WeatherDisplay:10.37,2013-03-08 18:34:00,
2013-03-08 13:39:00,44.6,29.4,30.09,NW,314,9.0,18.0,55,0.00,BKN,SCT,0.00,243.0,WeatherDisplay:10.37,2013-03-08 18:39:00,
2013-03-08 13:44:00,44.7,30.0,30.09,North,358,10.1,15.0,56,0.00,BKN,SCT,0.00,244.0,WeatherDisplay:10.37,2013-03-08 18:44:00,
2013-03-08 13:49:00,44.9,30.1,30.09,North,358,8.8,16.1,56,0.00,BKN,SCT,0.00,265.0,WeatherDisplay:10.37,2013-03-08 18:49:00,
2013-03-08 13:54:00,45.1,29.9,30.09,North,8,10.6,15.0,55,0.00,BKN,SCT,0.00,302.0,WeatherDisplay:10.37,2013-03-08 18:54:00,
2013-03-08 13:59:00,45.3,30.5,30.09,NW,316,9.1,11.5,56,0.00,BKN,SCT,0.00,250.0,WeatherDisplay:10.37,2013-03-08 18:59:00,
2013-03-08 14:04:00,45.2,30.4,30.09,North,349,8.8,12.7,56,0.00,BKN,SCT,0.00,241.0,WeatherDisplay:10.37,2013-03-08 19:04:00,
2013-03-08 14:09:00,45.2,30.4,30.09,NNW,343,10.6,15.0,56,0.00,BKN,SCT,0.00,220.0,WeatherDisplay:10.37,2013-03-08 19:09:00,
2013-03-08 14:14:00,45.3,30.5,30.09,NNE,15,10.2,15.0,56,0.00,BKN,SCT,0.00,209.0,WeatherDisplay:10.37,2013-03-08 19:14:00,
2013-03-08 14:19:00,45.2,30.4,30.09,NW,321,11.5,15.0,56,0.00,BKN,SCT,0.00,197.0,WeatherDisplay:10.37,2013-03-08 19:19:00,
2013-03-08 14:24:00,45.2,30.9,30.09,West,263,8.7,16.1,57,0.00,BKN,SCT,0.00,176.0,WeatherDisplay:10.37,2013-03-08 19:24:00,
2013-03-08 14:29:00,45.2,30.9,30.10,NNW,332,6.0,11.5,57,0.00,BKN,SCT,0.00,167.0,WeatherDisplay:10.37,2013-03-08 19:29:00,
2013-03-08 14:34:00,45.1,30.8,30.10,North,353,6.0,10.4,57,0.00,BKN,SCT,0.00,156.0,WeatherDisplay:10.37,2013-03-08 19:34:00,
2013-03-08 14:39:00,44.9,31.0,30.10,WNW,300,6.5,10.4,58,0.00,BKN,SCT,0.00,148.0,WeatherDisplay:10.37,2013-03-08 19:39:00,
2013-03-08 14:44:00,44.8,31.3,30.10,NNW,342,8.4,12.7,59,0.00,BKN,SCT,0.00,130.0,WeatherDisplay:10.37,2013-03-08 19:44:00,
2013-03-08 14:49:00,44.8,31.8,30.10,NNW,347,7.9,12.7,60,0.00,BKN,SCT,0.00,132.0,WeatherDisplay:10.37,2013-03-08 19:49:00,
2013-03-08 14:54:00,44.9,31.8,30.10,North,8,12.0,18.4,60,0.00,BKN,SCT,0.00,139.0,WeatherDisplay:10.37,2013-03-08 19:54:00,
2013-03-08 14:59:00,44.9,31.8,30.10,NNW,345,8.5,15.0,60,0.00,BKN,SCT,0.00,139.0,WeatherDisplay:10.37,2013-03-08 19:59:00,
2013-03-08 15:04:00,45.0,31.9,30.10,NW,324,8.7,15.0,60,0.00,BKN,SCT,0.00,125.0,WeatherDisplay:10.37,2013-03-08 20:04:00,
2013-03-08 15:09:00,45.0,31.5,30.10,NW,320,7.9,16.1,59,0.00,BKN,SCT,0.00,105.0,WeatherDisplay:10.37,2013-03-08 20:09:00,
2013-03-08 15:14:00,44.9,31.8,30.10,NNW,338,6.5,11.5,60,0.00,BKN,SCT,0.00,102.0,WeatherDisplay:10.37,2013-03-08 20:14:00,
2013-03-08 15:19:00,44.9,31.8,30.10,NNE,18,6.1,11.5,60,0.00,BKN,SCT,0.00,98.0,WeatherDisplay:10.37,2013-03-08 20:19:00,
2013-03-08 15:24:00,44.9,31.8,30.10,NNW,334,5.4,11.5,60,0.00,BKN,SCT,0.00,93.0,WeatherDisplay:10.37,2013-03-08 20:24:00,
2013-03-08 15:29:00,45.0,31.9,30.10,NNE,18,6.0,11.0,60,0.00,BKN,SCT,0.00,88.0,WeatherDisplay:10.37,2013-03-08 20:29:00,
2013-03-08 15:34:00,45.0,31.9,30.11,NW,321,6.0,12.7,60,0.00,BKN,SCT,0.00,88.0,WeatherDisplay:10.37,2013-03-08 20:34:00,
2013-03-08 15:39:00,45.1,32.0,30.11,NNW,344,7.3,13.0,60,0.00,BKN,SCT,0.00,104.0,WeatherDisplay:10.37,2013-03-08 20:39:00,
2013-03-08 15:44:00,45.2,32.9,30.11,North,3,5.8,12.7,62,0.00,BKN,SCT,0.00,97.0,WeatherDisplay:10.37,2013-03-08 20:44:00,
2013-03-08 15:49:00,45.3,32.2,30.11,NW,312,6.9,11.5,60,0.00,BKN,SCT,0.00,118.0,WeatherDisplay:10.37,2013-03-08 20:49:00,
2013-03-08 15:54:00,45.5,32.0,30.11,NNE,12,10.8,15.0,59,0.00,BKN,SCT,0.00,153.0,WeatherDisplay:10.37,2013-03-08 20:54:00,
2013-03-08 15:59:00,45.8,32.3,30.11,NNW,330,8.8,14.0,59,0.00,BKN,SCT,0.00,174.0,WeatherDisplay:10.37,2013-03-08 20:59:00,
2013-03-08 16:04:00,46.1,32.6,30.11,NW,322,9.1,11.5,59,0.00,BKN,SCT,0.00,158.0,WeatherDisplay:10.37,2013-03-08 21:04:00,
2013-03-08 16:09:00,46.3,32.3,30.11,North,351,10.2,17.0,58,0.00,BKN,SCT,0.00,142.0,WeatherDisplay:10.37,2013-03-08 21:09:00,
2013-03-08 16:14:00,46.3,32.3,30.11,NNW,328,8.5,12.7,58,0.00,BKN,SCT,0.00,111.0,WeatherDisplay:10.37,2013-03-08 21:14:00,
2013-03-08 16:19:00,46.2,32.2,30.11,NNW,337,8.1,11.5,58,0.00,BKN,SCT,0.00,91.0,WeatherDisplay:10.37,2013-03-08 21:19:00,
2013-03-08 16:24:00,46.2,32.2,30.11,NW,314,9.1,23.0,58,0.00,BKN,SCT,0.00,88.0,WeatherDisplay:10.37,2013-03-08 21:24:00,
2013-03-08 16:29:00,46.2,32.2,30.12,NNW,347,7.0,11.5,58,0.00,BKN,SCT,0.00,91.0,WeatherDisplay:10.37,2013-03-08 21:29:00,
2013-03-08 16:34:00,46.2,32.7,30.12,NW,324,9.5,16.1,59,0.00,BKN,SCT,0.00,93.0,WeatherDisplay:10.37,2013-03-08 21:34:00,
2013-03-08 16:39:00,46.2,32.2,30.12,NNW,328,10.0,12.7,58,0.00,BKN,SCT,0.00,88.0,WeatherDisplay:10.37,2013-03-08 21:39:00,
2013-03-08 16:44:00,46.3,32.3,30.12,North,8,8.9,16.1,58,0.00,BKN,SCT,0.00,65.0,WeatherDisplay:10.37,2013-03-08 21:44:00,
2013-03-08 16:49:00,46.3,32.7,30.12,North,353,6.8,17.3,59,0.00,BKN,SCT,0.00,54.0,WeatherDisplay:10.37,2013-03-08 21:49:00,
2013-03-08 16:54:00,46.2,32.7,30.12,NW,306,6.3,9.2,59,0.00,BKN,SCT,0.00,47.0,WeatherDisplay:10.37,2013-03-08 21:54:00,
2013-03-08 16:59:00,46.2,32.7,30.13,North,352,7.9,12.7,59,0.00,BKN,SCT,0.00,42.0,WeatherDisplay:10.37,2013-03-08 21:59:00,
2013-03-08 17:04:00,46.1,33.0,30.13,NNW,346,10.9,16.1,60,0.00,BKN,SCT,0.00,42.0,WeatherDisplay:10.37,2013-03-08 22:04:00,
2013-03-08 17:09:00,46.1,32.6,30.13,NNW,327,12.0,12.7,59,0.00,BKN,SCT,0.00,33.0,WeatherDisplay:10.37,2013-03-08 22:09:00,
2013-03-08 17:14:00,46.1,32.1,30.13,NNW,334,13.6,19.6,58,0.00,BKN,SCT,0.00,32.0,WeatherDisplay:10.37,2013-03-08 22:14:00,
2013-03-08 17:19:00,46.2,32.2,30.13,North,358,10.9,13.8,58,0.00,BKN,SCT,0.00,32.0,WeatherDisplay:10.37,2013-03-08 22:19:00,
2013-03-08 17:24:00,46.1,32.1,30.14,NNW,343,9.6,17.0,58,0.00,BKN,SCT,0.00,30.0,WeatherDisplay:10.37,2013-03-08 22:24:00,
2013-03-08 17:29:00,46.1,32.1,30.13,NNW,347,10.7,16.1,58,0.00,BKN,SCT,0.00,26.0,WeatherDisplay:10.37,2013-03-08 22:29:00,
2013-03-08 17:34:00,46.1,32.1,30.14,NNE,16,7.3,18.4,58,0.00,BKN,SCT,0.00,21.0,WeatherDisplay:10.37,2013-03-08 22:34:00,
2013-03-08 17:39:00,46.1,32.1,30.14,North,358,10.4,19.6,58,0.00,BKN,SCT,0.00,18.0,WeatherDisplay:10.37,2013-03-08 22:39:00,
2013-03-08 17:44:00,46.1,32.1,30.14,NNW,343,8.1,16.1,58,0.00,,SCT,0.00,12.0,WeatherDisplay:10.37,2013-03-08 22:44:00,
2013-03-08 17:49:00,46.0,32.0,30.14,WNW,295,9.1,13.8,58,0.00,,SCT,0.00,7.0,WeatherDisplay:10.37,2013-03-08 22:49:00,
2013-03-08 17:54:00,45.9,32.4,30.14,NNW,330,11.0,17.3,59,0.00,,SCT,0.00,5.0,WeatherDisplay:10.37,2013-03-08 22:54:00,
2013-03-08 17:59:00,45.9,32.4,30.15,NW,326,8.1,9.0,59,0.00,,SCT,0.00,5.0,WeatherDisplay:10.37,2013-03-08 22:59:00,
2013-03-08 18:04:00,45.9,32.4,30.15,NW,326,8.3,13.8,59,0.00,CLR,SCT,0.00,0.0,WeatherDisplay:10.37,2013-03-08 23:04:00,
2013-03-08 18:09:00,45.9,31.9,30.15,NNW,332,9.1,15.0,58,0.00,CLR,SCT,0.00,0.0,WeatherDisplay:10.37,2013-03-08 23:09:00,
2013-03-08 18:14:00,45.9,31.9,30.16,NNW,330,11.4,16.1,58,0.00,CLR,SCT,0.00,0.0,WeatherDisplay:10.37,2013-03-08 23:14:00,
2013-03-08 18:19:00,45.9,31.9,30.16,NNE,22,7.4,15.0,58,0.00,CLR,SCT,0.00,0.0,WeatherDisplay:10.37,2013-03-08 23:19:00,
2013-03-08 18:24:00,46.0,32.0,30.16,NNW,344,10.5,17.0,58,0.00,CLR,SCT,0.00,0.0,WeatherDisplay:10.37,2013-03-08 23:24:00,
2013-03-08 18:29:00,45.9,31.9,30.16,North,351,10.9,18.4,58,0.00,CLR,SCT,0.00,0.0,WeatherDisplay:10.37,2013-03-08 23:29:00,
2013-03-08 18:34:00,45.8,31.9,30.16,NNW,338,7.2,13.8,58,0.00,CLR,SCT,0.00,0.0,WeatherDisplay:10.37,2013-03-08 23:34:00,
2013-03-08 18:39:00,45.6,32.1,30.16,NNW,330,9.1,16.1,59,0.00,CLR,SCT,0.00,0.0,WeatherDisplay:10.37,2013-03-08 23:39:00,
2013-03-08 18:44:00,45.5,32.0,30.16,ENE,58,7.5,21.9,59,0.00,CLR,SCT,0.00,0.0,WeatherDisplay:10.37,2013-03-08 23:44:00,
2013-03-08 18:49:00,45.3,31.8,30.16,NNW,343,8.0,15.0,59,0.00,CLR,SCT,0.00,0.0,WeatherDisplay:10.37,2013-03-08 23:49:00,
2013-03-08 18:54:00,45.3,31.8,30.17,NW,307,11.5,17.3,59,0.00,CLR,SCT,0.00,0.0,WeatherDisplay:10.37,2013-03-08 23:54:00,
2013-03-08 18:59:00,45.3,32.2,30.17,NNW,333,10.3,13.8,60,0.00,CLR,SCT,0.00,0.0,WeatherDisplay:10.37,2013-03-08 23:59:00,
2013-03-08 19:04:00,45.2,32.1,30.17,North,358,10.8,18.4,60,0.00,CLR,SCT,0.00,0.0,WeatherDisplay:10.37,2013-03-09 00:04:00,
2013-03-08 19:10:00,45.3,32.2,30.17,North,3,7.3,16.1,60,0.00,CLR,SCT,0.00,0.0,WeatherDisplay:10.37,2013-03-09 00:10:00,
2013-03-08 19:15:00,45.3,32.2,30.18,North,358,9.2,13.0,60,0.00,CLR,SCT,0.00,0.0,WeatherDisplay:10.37,2013-03-09 00:15:00,
2013-03-08 19:19:00,45.3,32.2,30.18,WNW,295,9.4,13.8,60,0.00,CLR,SCT,0.00,0.0,WeatherDisplay:10.37,2013-03-09 00:19:00,
2013-03-08 19:25:00,45.4,32.3,30.18,NNW,346,8.0,17.3,60,0.00,CLR,SCT,0.00,0.0,WeatherDisplay:10.37,2013-03-09 00:25:00,
2013-03-08 19:30:00,45.4,32.3,30.18,North,358,10.0,13.8,60,0.00,CLR,SCT,0.00,0.0,WeatherDisplay:10.37,2013-03-09 00:30:00,
2013-03-08 19:35:00,45.4,32.3,30.19,NNW,329,10.8,12.7,60,0.00,CLR,SCT,0.00,0.0,WeatherDisplay:10.37,2013-03-09 00:35:00,
2013-03-08 19:40:00,45.4,32.3,30.19,NW,326,10.2,15.0,60,0.00,CLR,SCT,0.00,0.0,WeatherDisplay:10.37,2013-03-09 00:40:00,
2013-03-08 19:45:00,45.5,32.4,30.19,North,358,7.8,12.0,60,0.00,CLR,SCT,0.00,0.0,WeatherDisplay:10.37,2013-03-09 00:45:00,
2013-03-08 19:50:00,45.4,31.9,30.19,NW,307,5.7,13.8,59,0.00,CLR,SCT,0.00,0.0,WeatherDisplay:10.37,2013-03-09 00:50:00,
2013-03-08 19:55:00,45.4,32.3,30.19,NW,323,8.0,18.4,60,0.00,CLR,SCT,0.00,0.0,WeatherDisplay:10.37,2013-03-09 00:55:00,
2013-03-08 20:00:00,45.3,32.2,30.19,NNW,339,9.0,15.0,60,0.00,CLR,SCT,0.00,0.0,WeatherDisplay:10.37,2013-03-09 01:00:00,
2013-03-08 20:05:00,45.3,31.8,30.19,NNW,336,8.8,13.0,59,0.00,CLR,SCT,0.00,0.0,WeatherDisplay:10.37,2013-03-09 01:05:00,
2013-03-08 20:10:00,45.3,32.2,30.19,NNW,341,6.0,16.0,60,0.00,CLR,SCT,0.00,0.0,WeatherDisplay:10.37,2013-03-09 01:10:00,
2013-03-08 20:15:00,45.3,32.2,30.19,North,358,8.2,13.8,60,0.00,CLR,SCT,0.00,0.0,WeatherDisplay:10.37,2013-03-09 01:15:00,
2013-03-08 20:20:00,45.3,32.2,30.19,NNW,337,11.5,15.0,60,0.00,CLR,SCT,0.00,0.0,WeatherDisplay:10.37,2013-03-09 01:20:00,
2013-03-08 20:25:00,45.4,32.3,30.20,North,354,11.5,17.3,60,0.00,CLR,SCT,0.00,0.0,WeatherDisplay:10.37,2013-03-09 01:25:00,
2013-03-08 20:30:00,45.4,32.3,30.20,NNW,341,6.2,12.7,60,0.00,CLR,SCT,0.00,0.0,WeatherDisplay:10.37,2013-03-09 01:30:00,
2013-03-08 20:35:00,45.4,32.3,30.20,NNW,329,7.7,12.7,60,0.00,CLR,SCT,0.00,0.0,WeatherDisplay:10.37,2013-03-09 01:35:00,
2013-03-08 20:40:00,45.3,32.6,30.21,North,358,9.9,10.4,61,0.00,CLR,SCT,0.00,0.0,WeatherDisplay:10.37,2013-03-09 01:40:00,
2013-03-08 20:45:00,45.2,32.5,30.21,NNW,336,8.1,15.0,61,0.00,CLR,SCT,0.00,0.0,WeatherDisplay:10.37,2013-03-09 01:45:00,
2013-03-08 20:50:00,45.2,32.1,30.21,North,358,6.0,9.2,60,0.00,CLR,SCT,0.00,0.0,WeatherDisplay:10.37,2013-03-09 01:50:00,
2013-03-08 20:55:00,45.2,32.5,30.21,NNW,341,7.0,13.8,61,0.00,CLR,SCT,0.00,0.0,WeatherDisplay:10.37,2013-03-09 01:55:00,
2013-03-08 21:00:00,45.2,32.5,30.21,NNW,341,6.6,10.4,61,0.00,CLR,SCT,0.00,0.0,WeatherDisplay:10.37,2013-03-09 02:00:00,
2013-03-08 21:05:00,45.0,32.3,30.21,NW,309,9.2,13.8,61,0.00,CLR,SCT,0.00,0.0,WeatherDisplay:10.37,2013-03-09 02:05:00,
2013-03-08 21:10:00,45.0,32.3,30.21,NNW,339,9.7,16.1,61,0.00,CLR,SCT,0.00,0.0,WeatherDisplay:10.37,2013-03-09 02:10:00,
2013-03-08 21:15:00,44.9,31.8,30.22,NNW,340,8.0,11.5,60,0.00,CLR,SCT,0.00,0.0,WeatherDisplay:10.37,2013-03-09 02:15:00,
2013-03-08 21:20:00,44.8,31.8,30.22,NW,318,7.3,11.5,60,0.00,CLR,SCT,0.00,0.0,WeatherDisplay:10.37,2013-03-09 02:20:00,
2013-03-08 21:25:00,44.7,31.7,30.21,North,3,5.8,10.4,60,0.00,CLR,SCT,0.00,0.0,WeatherDisplay:10.37,2013-03-09 02:25:00,
2013-03-08 21:30:00,44.6,31.6,30.21,WNW,296,4.1,5.8,60,0.00,CLR,SCT,0.00,0.0,WeatherDisplay:10.37,2013-03-09 02:30:00,
2013-03-08 21:35:00,44.5,31.5,30.22,NW,326,5.6,6.9,60,0.00,CLR,SCT,0.00,0.0,WeatherDisplay:10.37,2013-03-09 02:35:00,
2013-03-08 21:40:00,44.4,31.4,30.22,North,358,6.2,11.5,60,0.00,CLR,SCT,0.00,0.0,WeatherDisplay:10.37,2013-03-09 02:40:00,
2013-03-08 21:45:00,44.4,31.4,30.22,North,3,4.9,9.2,60,0.00,CLR,SCT,0.00,0.0,WeatherDisplay:10.37,2013-03-09 02:45:00,
2013-03-08 21:50:00,44.3,31.3,30.22,North,352,4.6,6.9,60,0.00,CLR,SCT,0.00,0.0,WeatherDisplay:10.37,2013-03-09 02:50:00,
2013-03-08 21:55:00,44.2,30.8,30.22,North,350,5.1,10.4,59,0.00,CLR,SCT,0.00,0.0,WeatherDisplay:10.37,2013-03-09 02:55:00,
2013-03-08 22:00:00,44.2,30.8,30.22,NW,318,8.3,12.7,59,0.00,CLR,SCT,0.00,0.0,WeatherDisplay:10.37,2013-03-09 03:00:00,
2013-03-08 22:05:00,44.1,30.7,30.22,NNE,16,7.4,11.5,59,0.00,CLR,SCT,0.00,0.0,WeatherDisplay:10.37,2013-03-09 03:05:00,
2013-03-08 22:10:00,44.0,31.0,30.22,NNW,334,5.8,6.9,60,0.00,CLR,SCT,0.00,0.0,WeatherDisplay:10.37,2013-03-09 03:10:00,
2013-03-08 22:15:00,43.9,30.9,30.22,North,354,4.2,6.0,60,0.00,CLR,SCT,0.00,0.0,WeatherDisplay:10.37,2013-03-09 03:15:00,
2013-03-08 22:20:00,43.6,31.0,30.23,NNW,336,5.2,6.9,61,0.00,CLR,SCT,0.00,0.0,WeatherDisplay:10.37,2013-03-09 03:20:00,
2013-03-08 22:25:00,43.7,30.7,30.23,NW,309,5.4,10.4,60,0.00,CLR,SCT,0.00,0.0,WeatherDisplay:10.37,2013-03-09 03:25:00,
2013-03-08 22:30:00,43.7,31.1,30.23,NNW,345,5.2,10.0,61,0.00,CLR,SCT,0.00,0.0,WeatherDisplay:10.37,2013-03-09 03:30:00,
2013-03-08 22:35:00,43.6,31.0,30.23,North,358,5.8,10.4,61,0.00,CLR,SCT,0.00,0.0,WeatherDisplay:10.37,2013-03-09 03:35:00,
2013-03-08 22:40:00,43.6,31.0,30.23,North,358,5.0,8.1,61,0.00,CLR,SCT,0.00,0.0,WeatherDisplay:10.37,2013-03-09 03:40:00,
2013-03-08 22:45:00,43.4,30.8,30.23,NNW,330,2.6,3.5,61,0.00,CLR,SCT,0.00,0.0,WeatherDisplay:10.37,2013-03-09 03:45:00,
2013-03-08 22:50:00,43.3,30.7,30.23,NNW,343,4.3,6.9,61,0.00,CLR,SCT,0.00,0.0,WeatherDisplay:10.37,2013-03-09 03:50:00,
2013-03-08 22:55:00,43.2,30.6,30.23,NW,326,3.3,5.8,61,0.00,CLR,SCT,0.00,0.0,WeatherDisplay:10.37,2013-03-09 03:55:00,
2013-03-08 23:00:00,43.2,31.1,30.23,NW,304,5.6,8.1,62,0.00,CLR,SCT,0.00,0.0,WeatherDisplay:10.37,2013-03-09 04:00:00,
2013-03-08 23:05:00,43.2,30.6,30.23,NNW,330,4.6,9.0,61,0.00,,SCT,0.00,0.0,WeatherDisplay:10.37,2013-03-09 04:05:00,
2013-03-08 23:10:00,43.1,31.0,30.23,North,358,6.0,11.5,62,0.00,,SCT,0.00,0.0,WeatherDisplay:10.37,2013-03-09 04:10:00,
2013-03-08 23:15:00,43.1,30.6,30.23,NW,325,7.1,12.0,61,0.00,,SCT,0.00,0.0,WeatherDisplay:10.37,2013-03-09 04:15:00,
2013-03-08 23:20:00,43.1,30.1,30.23,NNE,14,5.1,11.5,60,0.00,,SCT,0.00,0.0,WeatherDisplay:10.37,2013-03-09 04:20:00,
2013-03-08 23:25:00,43.1,30.6,30.23,North,351,8.3,14.0,61,0.00,,SCT,0.00,0.0,WeatherDisplay:10.37,2013-03-09 04:25:00,
2013-03-08 23:30:00,43.1,30.6,30.23,North,358,8.6,11.5,61,0.00,,SCT,0.00,0.0,WeatherDisplay:10.37,2013-03-09 04:30:00,
2013-03-08 23:35:00,43.2,30.2,30.23,NNE,22,5.5,10.0,60,0.00,,SCT,0.00,0.0,WeatherDisplay:10.37,2013-03-09 04:35:00,
2013-03-08 23:40:00,43.2,30.2,30.23,NNE,16,4.7,8.1,60,0.00,,SCT,0.00,0.0,WeatherDisplay:10.37,2013-03-09 04:40:00,
2013-03-08 23:45:00,43.2,29.8,30.23,NNE,25,6.1,9.0,59,0.00,,SCT,0.00,0.0,WeatherDisplay:10.37,2013-03-09 04:45:00,
2013-03-08 23:50:00,43.1,29.7,30.23,NW,316,6.1,10.0,59,0.00,,SCT,0.00,0.0,WeatherDisplay:10.37,2013-03-09 04:50:00,
2013-03-08 23:55:00,43.0,30.1,30.23,NW,322,4.3,6.9,60,0.00,,SCT,0.00,0.0,WeatherDisplay:10.37,2013-03-09 04:55:00,